Regional Weather Roundup
Issued by NWS

Home | Current Version | Previous Version | Graphics & Text | Print | Product List | Glossary On
Versions: 1 2 3 4 5 6 7 8 9 10 11 12 13 14 15 16 17 18 19 20 21 22 23 24 25 26 27 28 29 30 31 32 33 34 35 36 37 38 39 40 41 42 43 44 45 46 47 48 49 50
000
ASUS43 KLOT 282008
RWRIL

ILLINOIS REGIONAL WEATHER ROUNDUP
NATIONAL WEATHER SERVICE CHICAGO/ROMEOVILLE IL
300 PM CDT TUE APR 28 2015

NOTE: "FAIR" INDICATES FEW OR NO CLOUDS BELOW 12,000 FEET WITH NO
SIGNIFICANT WEATHER AND/OR OBSTRUCTIONS TO VISIBILITY.

* THESE STATIONS ARE NOT UNDER NWS QUALITY CONTROL. THEY ALSO MAY NOT
  REPORT WEATHER SUCH AS PRECIPITATION OR FOG.

ILZ001-002-007-009-015-016-024-282100-
NORTHWEST ILLINOIS

CITY           SKY/WX    TMP DP  RH WIND       PRES   REMARKS
MOLINE         SUNNY     70  35  27 NE8G17    30.03F
STERLING*      SUNNY     68  41  37 N3        30.05F
SAVANNA*       SUNNY     68  35  29 N6        30.04F
$$

ILZ003-004-008-010-011-017-018-282100-
NORTH CENTRAL ILLINOIS

CITY           SKY/WX    TMP DP  RH WIND       PRES   REMARKS
ROCKFORD       PTSUNNY   66  37  34 NE8       30.06F
FREEPORT*      SUNNY     63  35  34 NE10      30.07F
ROCHELLE*      SUNNY     64  35  33 N6        30.05F
DE KALB*       SUNNY     62  37  38 N7G16     30.04F
PERU*          SUNNY     64  35  33 CALM      30.05F
$$

ILZ005-006-012>014-019>023-282100-
NORTHEAST ILLINOIS

CITY           SKY/WX    TMP DP  RH WIND       PRES   REMARKS
CHICAGO-OHARE  MOSUNNY   56  36  47 NE14      30.06F
CHICAGO-MIDWAY MOSUNNY   57  34  41 NE12      30.06F
AURORA         SUNNY     64  37  36 MISG      30.04F
LANSING*       SUNNY     54  34  46 NE10      30.07F
JOLIET*        SUNNY     64  41  43 N7        30.04F
WAUKEGAN       SUNNY     50  36  58 NE10      30.08F
DUPAGE AIRPORT MOSUNNY   63  38  39 NW7G17    30.03F
KANKAKEE*      MOSUNNY   62  40  44 CALM      30.04F
WHEELING       SUNNY     52  34  50 NE9G20    30.10F
MORRIS*        SUNNY     64  37  36 NW9       30.03F
ROMEOVILLE*    SUNNY     62  35  37 NE7       30.04F
NORTHERLY ISL    N/A     47  37  68 N12         N/A
$$

LMZ740>746-282100-
SOUTHERN LAKE MICHIGAN

STATION/POSITION SKY/WX   TEMP    WIND        PRES    VSBY  WAVE
                          AIR SEA DIR/SP/G                  HT/PER
                          (F)     (DEG/KT/KT) (MB)    (MI)  (FT/S)
HARRISON CRIB              41      10/  9/ 11   N/A
BURNHAM HARBOR             47      30/  8/ 10   N/A
CALUMET HARBOR             45      20/  7/ 11   N/A
BURNS HARBOR               42      40/ 10/ 11 1019.6F
MICHIGAN CITY              40      10/  8/  9   N/A
MICHIGAN CITY 6N           40 46   50/  6/  8   N/A           1/ 2
$$

ILZ025>027-034>036-040-047-049-050-058-095>099-282100-
WEST-CENTRAL ILLINOIS

CITY           SKY/WX    TMP DP  RH WIND       PRES   REMARKS
QUINCY         SUNNY     70  37  29 NW13      30.03F
GALESBURG*     SUNNY     69  37  31 N8G16     30.03F
MACOMB*        SUNNY     71  36  27 N13       30.04F
JACKSONVILLE*  SUNNY     70  37  30 N7G16     30.03F
PITTSFIELD*    SUNNY     70  37  30 N5G17     30.05F
$$

ILZ028>032-037-038-041>044-048-051>054-059>061-282100-
CENTRAL ILLINOIS

CITY           SKY/WX    TMP DP  RH WIND       PRES   REMARKS
PONTIAC        SUNNY     65  38  37 NE8       30.04F
BLOOMINGTON    SUNNY     66  39  37 NW7       30.05F
DECATUR        SUNNY     66  41  40 N10G17    30.03F
PEORIA         SUNNY     70  37  29 VRB7      30.04F
LACON*         SUNNY     65  39  38 NE5       30.04F
LINCOLN*       SUNNY     68  37  32 N7        30.02F
SPRINGFIELD    SUNNY     70  40  33 N10       30.03F
TAYLORVILLE    SUNNY     66  36  32 N7        30.02F
$$

ILZ033-039-045-046-055>057-062-063-282100-
EAST-CENTRAL ILLINOIS

CITY           SKY/WX    TMP DP  RH WIND       PRES   REMARKS
CHAMPAIGN      SUNNY     65  36  34 N14G21    30.03F
DANVILLE*      SUNNY     61  38  42 NE3       30.01F
RANTOUL*       SUNNY     65  38  36 E7        30.03F
MATTOON        SUNNY     63  36  36 N9G20     30.02F
PARIS*         SUNNY     62  41  45 N10       30.03F
$$

ILZ079-100>102-282100-
SOUTHWEST ILLINOIS

CITY           SKY/WX    TMP DP  RH WIND       PRES   REMARKS
ALTON          MOSUNNY   50  32  50 NE14      30.02F
BELLEVILLE     SUNNY     67  43  40 NE12      30.01F
CAHOKIA*       SUNNY     69  41  36 N13G20    30.03F
SPARTA*        MOSUNNY   63  43  47 N13       30.03F
$$

ILZ064>066-069>071-074>076-080>082-084>086-088>090-092>094-282100-
SOUTH-CENTRAL ILLINOIS

CITY           SKY/WX    TMP DP  RH WIND       PRES   REMARKS
CARBONDALE     MOSUNNY   65  40  39 NE12      30.02F
CAIRO*         CLOUDY    62  41  45 N7        30.01F
EFFINGHAM*     SUNNY     65  33  30 NE3       30.03F
MARION         MOSUNNY   64  43  45 N7        30.03S
MT. VERNON     SUNNY     64  43  45 NE14      30.02F
CENTRALIA*     SUNNY     68  37  32 N9G21     30.01F
SALEM*         SUNNY     67  36  32 N15       30.02F
METROPOLIS*    CLOUDY    64  42  44 NE3       30.00F
$$

ILZ067-068-072-073-078-083-087-091-282100-
SOUTHEAST ILLINOIS

CITY           SKY/WX    TMP DP  RH WIND       PRES   REMARKS
LAWRENCEVILLE  SUNNY     64  38  38 MISG      30.01F
FLORA*         SUNNY     63  39  41 NE10G17   30.02F
FAIRFIELD*     SUNNY     63  40  42 N9        30.01F
HARRISBURG*    MOSUNNY   62  40  45 NE8       30.02F
ROBINSON*      SUNNY     63  36  37 E5        30.03F
CARMI*         SUNNY     63  34  33 N9        30.00F
$$

ABBREVIATIONS USED IN REMARKS
   TC - TEMPERATURE IN CELSIUS
  WCI - WIND CHILL INDEX
   HX - HEAT INDEX
  VSB - VISIBILITY
$$



USA.gov is the U.S. government's official web portal to all federal, state and local government web resources and services.